DELTA 1 DEB, 7085

Orbit data source: Space-Track

DELTA 1 DEB, 7085 is space debris in SSO originally from a launch on Tue, 06 Nov 1973 UTC launched from the Air Force Western Test Range (AFWTR). Debris objects in space refer to the collection of defunct objects orbiting the Earth. Examples of debris include non-operational satellites, rocket bodies, and fragments generated from explosions, collisions, or faulty payload assembly.

Loading next visibility...
Identifier
7085, 1973-086CD
Orbit
SSO
Country
Flag of USUS
Related business
Manufacturer
Unknown
Mission
Spacecraft
Bus & Motor
Unknown
Mass
Unknown
Launch date (UTC)
1973-11-06 (53 years ago)
Launch vehicle
Unknown
Launch site
Air Force Western Test Range (AFWTR)
Object type
Payload
Rocket body
Debris
Shape & HBR
Unknown shape, 0.1 m
Radar Cross Section
Medium (>0.1 m² and <1 m²)

Expand to show TLE details & history
Last TLE update: 17 hours ago

TLE from 17 hours ago
0 DELTA 1 DEB
1 07085U 73086CD  26255.01780936  .00000018  00000-0  36994-3 0  9991
2 07085 102.1828  57.5881 0097567  45.5730  77.0337 12.60298221427076
Epoch: 2026-09-12T00:25Z
TLE epoch observation values (Epoch: 2026-09-12T00:25:38.728Z)
Latitude
54.50812°
Longitude
-102.32244°
Altitude
1,414.114 km
Speed
7.166 km/s
True Right ascension
17h 00m 29s
True Declination
54° 21' 33"
Sunlit
Object was in daylight at epoch
Visualization orbit readout
Latitude
Unknown
Longitude
Unknown
Altitude
Unknown
Speed
Unknown
Apparent Right ascension
Unknown
Apparent Declination
Unknown
Sunlit
N/A
Visualization observer readout
Local Sidereal Time
09:25:04
Azimuth
Unknown
Elevation
Unknown
Doppler factor
Unknown
Orbital elements
Apogee altitude
1,495.35 km
Perigee altitude
1,343.196 km
Semi-major axis
7,797.41 km
Eccentricity
0.00976
Inclination
102.1828°
RAAN
57.5881°
Arg. of periapsis
45.573°
True anomaly
78.12615°
Mean anomaly
77.0337°
Eccentric anomaly
77.57963°
Mean motion
3.15223 °/min
Orbital period
114.2 mins
BSTAR
0.00036994
Loading maneuver chart data...
Computing Atmospheric mass density...
Loading historical data...
Loading historical data...
Loading historical data...
Loading historical data...
Loading historical data...
Loading historical data...
Loading historical data...

Documentation

Showing up to 5 results
|